Change the Weather History Date:

Tuesday, September 17, 2013

  Actual Average Record
Temperature  
Mean Temperature 71 °F -  
Max Temperature 78 °F 85 °F 98 °F (1997)
Min Temperature 64 °F 59 °F 44 °F (1951)
Cooling Degree Days 6    
Growing Degree Days 21 (Base 50)    
Moisture  
Dew Point 63 °F    
Average Humidity 79    
Maximum Humidity 100    
Minimum Humidity 51    
Precipitation  
Precipitation 0.00 in - - ()
Sea Level Pressure  
Sea Level Pressure 30.14 in    
Wind  
Wind Speed 7 mph (ESE)    
Max Wind Speed 16 mph    
Max Gust Speed 22 mph    
Visibility 9 miles    
Events Rain    
Averages and records for this station are not official NWS values.
T = Trace of Precipitation, MM = Missing Value Source: NWS Daily Summary

Daily Weather History Graph

Daily Weather History Graph

Search for Another Location

Airport or City:

Trip Planner

Search our weather history database for the weather conditions in past years. The results will help you decide how hot, cold, wet, or windy it might be!

Date:

Astronomy

Sep. 17, 2013 Rise Set
Actual Time 6:38 AM MDT 6:55 PM MDT
Civil Twilight 6:13 AM MDT 7:20 PM MDT
Nautical Twilight 5:44 AM MDT 7:49 PM MDT
Astronomical Twilight 5:15 AM MDT 8:18 PM MDT
Moon 5:41 PM MDT (9/17) 4:39 AM MDT (9/17)
Length of Visible Light 13h 07m
Length of Day
12h 17m
Waxing Gibbous, 96% of the Moon is Illuminated
Sep 17
Waxing Gibbous
Sep 19
Full
Sep 26
Last Quarter
Oct 4
New
Oct 11
First Quarter

Hourly Weather History & Observations

Time (MDT) Temp. Dew Point Humidity Pressure Visibility Wind Dir Wind Speed Gust Speed Precip Events Conditions
12:15 AM 64.4 °F 64.4 °F 100% 30.20 in 5.0 mi ENE 6.9 mph - N/A Rain Light Rain
12:35 AM 64.4 °F 64.4 °F 100% 30.21 in 10.0 mi East 4.6 mph - N/A   Overcast
12:55 AM 64.4 °F 64.4 °F 100% 30.20 in 10.0 mi East 4.6 mph - N/A   Mostly Cloudy
1:15 AM 64.4 °F 64.4 °F 100% 30.21 in 10.0 mi NE 3.5 mph - N/A   Mostly Cloudy
1:35 AM 66.2 °F 64.4 °F 94% 30.21 in 10.0 mi NE 3.5 mph - N/A   Mostly Cloudy
1:55 AM 66.2 °F 64.4 °F 94% 30.20 in 10.0 mi NE 3.5 mph - N/A   Mostly Cloudy
2:15 AM 66.2 °F 64.4 °F 94% 30.20 in 10.0 mi NE 4.6 mph - N/A   Mostly Cloudy
2:35 AM 66.2 °F 64.4 °F 94% 30.19 in 9.0 mi ENE 4.6 mph - N/A   Mostly Cloudy
2:55 AM 66.2 °F 64.4 °F 94% 30.19 in 9.0 mi ENE 3.5 mph - N/A   Overcast
3:15 AM 66.2 °F 66.2 °F 100% 30.18 in 8.0 mi East 3.5 mph - N/A   Scattered Clouds
3:35 AM 66.2 °F 66.2 °F 100% 30.18 in 7.0 mi East 4.6 mph - N/A   Mostly Cloudy
3:55 AM 66.2 °F 66.2 °F 100% 30.18 in 6.0 mi East 4.6 mph - N/A   Mostly Cloudy
4:15 AM 66.2 °F 66.2 °F 100% 30.18 in 5.0 mi East 4.6 mph - N/A   Mostly Cloudy
4:35 AM 66.2 °F 66.2 °F 100% 30.18 in 5.0 mi East 4.6 mph - N/A   Mostly Cloudy
4:55 AM 66.2 °F 66.2 °F 100% 30.18 in 4.0 mi East 4.6 mph - N/A   Scattered Clouds
5:50 AM 64.4 °F 64.4 °F 100% 30.17 in 10.0 mi East 4.6 mph - N/A   Mostly Cloudy
6:50 AM 64.4 °F 64.4 °F 100% 30.18 in 10.0 mi East 3.5 mph - N/A   Mostly Cloudy
7:50 AM 66.2 °F 66.2 °F 100% 30.19 in 10.0 mi ESE 8.1 mph - N/A   Mostly Cloudy
8:50 AM 66.2 °F 64.4 °F 94% 30.20 in 10.0 mi ESE 5.8 mph - N/A   Mostly Cloudy
9:20 AM 69.8 °F 64.4 °F 83% 30.19 in 10.0 mi SE 9.2 mph - N/A   Mostly Cloudy
9:50 AM 71.6 °F 64.4 °F 78% 30.20 in 10.0 mi SE 11.5 mph - N/A   Mostly Cloudy
10:50 AM 73.4 °F 64.4 °F 73% 30.18 in 10.0 mi SE 15.0 mph - N/A   Overcast
11:50 AM 77.0 °F 62.6 °F 61% 30.16 in 10.0 mi SE 13.8 mph - N/A   Overcast
12:50 PM 77.0 °F 62.6 °F 61% 30.13 in 10.0 mi SE 13.8 mph 18.4 mph N/A   Mostly Cloudy
1:50 PM 78.8 °F 62.6 °F 57% 30.11 in 10.0 mi ESE 13.8 mph 21.9 mph N/A   Mostly Cloudy
2:50 PM 77.0 °F 59.0 °F 54% 30.08 in 10.0 mi SE 11.5 mph 18.4 mph N/A   Mostly Cloudy
3:50 PM 78.8 °F 59.0 °F 51% 30.05 in 10.0 mi SE 15.0 mph - N/A   Mostly Cloudy
4:50 PM 77.0 °F 59.0 °F 54% 30.04 in 10.0 mi ESE 15.0 mph 20.7 mph N/A   Mostly Cloudy
5:45 PM 77.0 °F 59.0 °F 54% 30.05 in 10.0 mi SE 16.1 mph 21.9 mph N/A   Scattered Clouds
6:15 PM 77.0 °F 59.0 °F 54% 30.07 in 10.0 mi SE 16.1 mph 19.6 mph N/A   Mostly Cloudy
6:35 PM 75.2 °F 59.0 °F 57% 30.07 in 10.0 mi SSE 12.7 mph 18.4 mph N/A   Mostly Cloudy
6:55 PM 75.2 °F 59.0 °F 57% 30.06 in 10.0 mi SSE 10.4 mph - N/A   Mostly Cloudy
7:15 PM 73.4 °F 60.8 °F 65% 30.06 in 10.0 mi SE 10.4 mph - N/A   Partly Cloudy
7:35 PM 73.4 °F 60.8 °F 65% 30.06 in 10.0 mi SE 10.4 mph - N/A   Scattered Clouds
7:55 PM 73.4 °F 60.8 °F 65% 30.07 in 10.0 mi SE 11.5 mph - N/A   Mostly Cloudy
8:15 PM 73.4 °F 60.8 °F 65% 30.08 in 10.0 mi SE 10.4 mph - N/A   Overcast
8:35 PM 73.4 °F 60.8 °F 65% 30.09 in 10.0 mi SE 9.2 mph - N/A   Overcast
8:55 PM 73.4 °F 60.8 °F 65% 30.10 in 10.0 mi SE 3.5 mph - N/A   Overcast
9:15 PM 71.6 °F 62.6 °F 73% 30.10 in 10.0 mi SE 6.9 mph - N/A   Scattered Clouds
9:35 PM 71.6 °F 62.6 °F 73% 30.11 in 10.0 mi SE 9.2 mph - N/A   Clear
9:55 PM 71.6 °F 60.8 °F 69% 30.11 in 10.0 mi SE 5.8 mph - N/A   Clear
10:15 PM 69.8 °F 62.6 °F 78% 30.11 in 10.0 mi SE 5.8 mph - N/A   Clear
10:35 PM 68.0 °F 62.6 °F 83% 30.11 in 10.0 mi Calm Calm - N/A   Clear
10:55 PM 68.0 °F 60.8 °F 78% 30.11 in 10.0 mi Calm Calm - N/A   Clear
11:15 PM 68.0 °F 60.8 °F 78% 30.11 in 10.0 mi Calm Calm - N/A   Clear
11:35 PM 68.0 °F 60.8 °F 78% 30.11 in 10.0 mi Calm Calm - N/A   Scattered Clouds
11:55 PM 68.0 °F 60.8 °F 78% 30.12 in 10.0 mi Calm Calm - N/A   Mostly Cloudy